カタログに戻る

STARLINK-31882

運用中通信VLEO
NORAD 59855·PAYLOAD·🇺🇸 United States

打ち上げ May 23, 2024 から Cape Canaveral Space Force Station

Loading…

次のパス (今後24時間)

TLE

最新Source: CelesTrak SupGP

元期: Sep 15, 2026, 02:14 UTC

1 59855C 24097W   26258.09354167  .00009423  00000+0  34123-3 0  2583
2 59855  42.9996 277.7334 0001297 262.0777 114.0810 15.27579427    11

AllMySatでSTARLINK-31882をリアルタイム追跡

Download on the App Store